Location: Newark
(50.0306°N, 2.3272°E)
Time: 02:03:10
(UTC+00:00)

Vanguard 1 - Pass Details

Date: 11 December 2019
Orbit: 651 x 3832 km, 34.2° (Epoch: 23 January)

Event Time Altitude Azimuth Distance (km) Brightness Sun altitude
Exits shadow 01:13:49 17° 149° (SSE) 6,265 13.9 -57.7°
Maximum altitude 01:19:10 19° 133° (SE) 6,165 14.0 -57.1°
Drops below altitude 10° 01:32:00 10° 98° (E) 6,637 14.5 -55.6°
Sets 01:39:00 0° 84° (E) 7,284 14.9 -54.8°
